Regional Weather Roundup
Issued by NWS Green Bay, WI

Home | Current Version | Previous Version | Text Only | Print | Product List | Glossary On
Versions: 1 2 3 4 5 6 7 8 9 10 11 12 13 14 15 16 17 18 19 20 21 22 23 24 25 26 27 28 29 30 31 32 33 34 35 36 37 38 39 40 41 42 43 44 45 46 47 48 49 50
000
ASUS43 KGRB 230211
RWRGRB

NORTH-CENTRAL AND NORTHEAST WISCONSIN REGIONAL WEATHER ROUNDUP
NATIONAL WEATHER SERVICE GREEN BAY WI
900 PM CDT FRI MAY 22 2015

WIZ005-009-010>012-018-019-230300-
NORTH CENTRAL WISCONSIN

CITY           SKY/WX    TMP DP  RH WIND       PRES   REMARKS
IRONWOOD       CLEAR     54  39  58 CALM      30.16R
MANITOWISH WTR CLEAR     51  33  51 CALM      30.21R
ARBOR VITAE    CLEAR     55  33  42 CALM      30.22R
EAGLE RIVER    CLEAR     50  30  46 CALM      30.22R
LAND O LAKES   CLEAR     48  31  50 CALM      30.22S
RHINELANDER    CLEAR     52  31  44 CALM      30.22R
PHILLIPS       CLEAR     53  38  56 CALM      30.21R
ANTIGO         CLEAR     58  35  41 CALM      30.22R
TOMAHAWK       CLEAR     51  34  52 CALM      30.21S
MERRILL        CLEAR     54  40  58 CALM      30.22R
$$

WIZ013-073-230300-
NORTHEAST WISCONSIN

CITY           SKY/WX    TMP DP  RH WIND       PRES   REMARKS
IRON MOUNTAIN  CLEAR     53  32  44 SE7       30.23R
MARINETTE      CLEAR     48  27  43 S8        30.25R
OCONTO         CLEAR     50  33  51 SE3       30.24R
$$

WIZ017-030-035>037-045-230300-
CENTRAL WISCONSIN

CITY           SKY/WX    TMP DP  RH WIND       PRES   REMARKS
MEDFORD        CLEAR     56  37  49 SW3       30.22R
WAUSAU         CLEAR     61  39  44 SW3       30.20R
MOSINEE        CLEAR     57  37  47 CALM      30.23R
MARSHFIELD     PTCLDY    61  36  39 CALM      30.22R
WISC RAPIDS    LGT RAIN  60  34  37 CALM      30.23R
STEVENS POINT  PTCLDY    54  36  50 CALM      30.23R
WAUPACA        PTCLDY    58  37  46 CALM      30.23R
SHAWANO        CLEAR     59  35  40 S7        30.22R
CLINTONVILLE   PTCLDY    61  34  36 SW3       30.21R
$$

WIZ038-039-048-051-230300-
FOX VALLEY

CITY           SKY/WX    TMP DP  RH WIND       PRES   REMARKS
NWS GREEN BAY  PTCLDY    54  30  40 S8        30.24R
APPLETON       PTCLDY    55  34  44 SE10      30.24R
OSHKOSH        MOCLDY    53  31  42 S12       30.25R
FOND DU LAC    MOCLDY    53  26  35 SE10      30.25R
$$

WIZ022-050-052-230300-
EAST CENTRAL WISCONSIN

CITY           SKY/WX    TMP DP  RH WIND       PRES   REMARKS
STURGEON BAY   CLEAR     46  21  36 SE9       30.28R
MANITOWOC      CLEAR     48  25  40 S9        30.27R
SHEBOYGAN      PTCLDY    46  27  47 S8        30.28R
$$

LMZ563-521-522-541>543-230300-
LAKESHORE

STATION/POSITION TIME  TEMP    WIND        PRES    VSBY  WAVE
                       AIR SEA DIR/SP/G                  HT/PER
                 (UTC) (F)     (DEG/KT/KT) (MB)    (MI)  (FT/S)
SHEBOYGAN LKSHOR 0200   49     200/ 10/ 12 1026.0R
KEWAUNEE LKSHORE 0100   46     170/  7/  8 1023.7F
NORTHPORT PIER   0100   49     150/  7/ 10 1024.7S
N MID LAKE BUOY  0150   42 36  210/  4/  4 1025.4F         0
SISTER BAY LKSHO 0117   47     130/  7/  9   N/A
CHAMBERS ISLAND  0100   51     110/  4/  6 1024.4F
MENOMINEE LKSHOR 0100   51     120/ 10/ 11 1024.5F
$$


USA.gov is the U.S. government's official web portal to all federal, state and local government web resources and services.